| time (UTC) | temp F | wind direction | speed MPH | gust MPH | rain 1hr in | rain 24hr in | rain mn in | humidity % | barometer mb |
| 20260906000523 | 63 | 0 | 0.0 | 0.0 | 0.00 | 0.00 | 0.00 | 75 | 1013.3 |
| 20260906000046 | 63 | 0 | 0.0 | 0.0 | 0.00 | 0.00 | 0.00 | 74 | 1013.2 |
| 20260905235524 | 63 | 0 | 0.0 | 0.0 | 0.00 | 0.00 | 0.00 | 72 | 1013.2 |
| 20260905235025 | 64 | 0 | 0.0 | 0.0 | 0.00 | 0.00 | 0.00 | 71 | 1013.1 |
| 20260905234544 | 64 | 0 | 0.0 | 0.0 | 0.00 | 0.00 | 0.00 | 70 | 1013.0 |
| 20260905234025 | 64 | 0 | 0.0 | 0.0 | 0.00 | 0.00 | 0.00 | 69 | 1013.0 |
| 20260905233524 | 65 | 0 | 0.0 | 0.0 | 0.00 | 0.00 | 0.00 | 69 | 1013.1 |
| 20260905233043 | 65 | 0 | 0.0 | 0.0 | 0.00 | 0.00 | 0.00 | 67 | 1013.1 |
| 20260905232529 | 65 | 0 | 0.0 | 0.0 | 0.00 | 0.00 | 0.00 | 67 | 1012.9 |
| 20260905232026 | 65 | 0 | 0.0 | 0.0 | 0.00 | 0.00 | 0.00 | 66 | 1012.9 |
| 20260905231545 | 65 | 0 | 0.0 | 0.0 | 0.00 | 0.00 | 0.00 | 65 | 1012.9 |
| 20260905231024 | 66 | 0 | 0.0 | 0.0 | 0.00 | 0.00 | 0.00 | 65 | 1012.8 |
| 20260905230523 | 66 | 0 | 0.0 | 2.0 | 0.00 | 0.00 | 0.00 | 66 | 1012.6 |
| 20260905230052 | 66 | 0 | 0.0 | 2.0 | 0.00 | 0.00 | 0.00 | 66 | 1012.7 |
| 20260905225524 | 66 | 0 | 0.0 | 2.0 | 0.00 | 0.00 | 0.00 | 66 | 1012.7 |
| 20260905225025 | 66 | 0 | 0.0 | 4.0 | 0.00 | 0.00 | 0.00 | 66 | 1012.7 |
| 20260905224546 | 67 | 0 | 0.0 | 4.0 | 0.00 | 0.00 | 0.00 | 66 | 1012.7 |
| 20260905224024 | 67 | 0 | 0.0 | 3.0 | 0.00 | 0.00 | 0.00 | 65 | 1012.5 |
| 20260905223527 | 67 | 0 | 0.0 | 1.0 | 0.00 | 0.00 | 0.00 | 64 | 1012.6 |
| 20260905223044 | 68 | 0 | 0.0 | 1.0 | 0.00 | 0.00 | 0.00 | 63 | 1012.5 |
| 20260905222525 | 68 | 0 | 0.0 | 4.0 | 0.00 | 0.00 | 0.00 | 64 | 1012.5 |
| 20260905222028 | 68 | 0 | 0.0 | 6.0 | 0.00 | 0.00 | 0.00 | 62 | 1012.4 |
| 20260905221551 | 68 | 0 | 0.0 | 6.0 | 0.00 | 0.00 | 0.00 | 60 | 1012.3 |
| 20260905221024 | 69 | 0 | 0.0 | 2.0 | 0.00 | 0.00 | 0.00 | 60 | 1012.3 |
| 20260905220525 | 69 | 0 | 0.0 | 11.0 | 0.00 | 0.00 | 0.00 | 59 | 1012.2 |
| 20260905220047 | 69 | 0 | 0.0 | 11.0 | 0.00 | 0.00 | 0.00 | 60 | 1012.1 |
| 20260905215528 | 69 | 0 | 1.0 | 11.0 | 0.00 | 0.00 | 0.00 | 60 | 1012.1 |
| 20260905215023 | 69 | 0 | 0.0 | 4.0 | 0.00 | 0.00 | 0.00 | 61 | 1012.0 |
| 20260905214553 | 69 | 0 | 0.0 | 4.0 | 0.00 | 0.00 | 0.00 | 61 | 1011.8 |
| 20260905214028 | 69 | 0 | 0.0 | 4.0 | 0.00 | 0.00 | 0.00 | 59 | 1011.7 |
| 20260905213526 | 69 | 0 | 0.0 | 4.0 | 0.00 | 0.00 | 0.00 | 62 | 1011.8 |
| 20260905213055 | 70 | 0 | 0.0 | 8.0 | 0.00 | 0.00 | 0.00 | 59 | 1011.8 |
| 20260905212528 | 70 | 0 | 0.0 | 8.0 | 0.00 | 0.00 | 0.00 | 61 | 1011.7 |
| 20260905212026 | 70 | 0 | 0.0 | 8.0 | 0.00 | 0.00 | 0.00 | 59 | 1011.8 |
| 20260905211546 | 70 | 0 | 0.0 | 8.0 | 0.00 | 0.00 | 0.00 | 59 | 1011.7 |
| 20260905211024 | 70 | 0 | 0.0 | 8.0 | 0.00 | 0.00 | 0.00 | 59 | 1011.7 |
| 20260905210528 | 71 | 0 | 0.0 | 2.0 | 0.00 | 0.00 | 0.00 | 59 | 1011.7 |
| 20260905210052 | 71 | 0 | 0.0 | 8.0 | 0.00 | 0.00 | 0.00 | 59 | 1011.6 |
| 20260905205528 | 72 | 0 | 0.0 | 8.0 | 0.00 | 0.00 | 0.00 | 57 | 1011.6 |
| 20260905205024 | 72 | 0 | 1.0 | 10.0 | 0.00 | 0.00 | 0.00 | 54 | 1011.5 |
| 20260905204547 | 73 | 0 | 0.0 | 10.0 | 0.00 | 0.00 | 0.00 | 56 | 1011.5 |
| 20260905204026 | 74 | 28 | 0.0 | 8.0 | 0.00 | 0.00 | 0.00 | 52 | 1011.5 |
| 20260905203525 | 74 | 0 | 0.0 | 8.0 | 0.00 | 0.00 | 0.00 | 53 | 1011.4 |
| 20260905203053 | 74 | 0 | 0.0 | 3.0 | 0.00 | 0.00 | 0.00 | 55 | 1011.3 |
| 20260905202528 | 74 | 0 | 0.0 | 0.0 | 0.00 | 0.00 | 0.00 | 54 | 1011.4 |
| 20260905202029 | 74 | 0 | 0.0 | 6.0 | 0.00 | 0.00 | 0.00 | 54 | 1011.4 |
| 20260905201555 | 74 | 0 | 0.0 | 6.0 | 0.00 | 0.00 | 0.00 | 52 | 1011.3 |
| 20260905201028 | 74 | 0 | 0.0 | 8.0 | 0.00 | 0.00 | 0.00 | 53 | 1011.3 |
| 20260905200526 | 73 | 328 | 0.0 | 8.0 | 0.00 | 0.00 | 0.00 | 54 | 1011.4 |
| 20260905200053 | 73 | 0 | 0.0 | 7.0 | 0.00 | 0.00 | 0.00 | 56 | 1011.3 |
| 20260905195531 | 73 | 0 | 0.0 | 5.0 | 0.00 | 0.00 | 0.00 | 54 | 1011.3 |
| 20260905195030 | 74 | 0 | 0.0 | 10.0 | 0.00 | 0.00 | 0.00 | 55 | 1011.3 |
| 20260905194545 | 74 | 0 | 1.0 | 10.0 | 0.00 | 0.00 | 0.00 | 54 | 1011.2 |
| 20260905194028 | 74 | 72 | 1.0 | 11.0 | 0.00 | 0.00 | 0.00 | 54 | 1011.2 |
| 20260905193527 | 74 | 277 | 1.0 | 11.0 | 0.00 | 0.00 | 0.00 | 55 | 1011.2 |
| 20260905193042 | 73 | 0 | 0.0 | 6.0 | 0.00 | 0.00 | 0.00 | 56 | 1011.2 |
| 20260905192531 | 72 | 0 | 0.0 | 6.0 | 0.00 | 0.00 | 0.00 | 56 | 1011.2 |
| 20260905192028 | 72 | 0 | 0.0 | 7.0 | 0.00 | 0.00 | 0.00 | 58 | 1011.2 |
| 20260905191550 | 73 | 0 | 0.0 | 8.0 | 0.00 | 0.00 | 0.00 | 59 | 1011.1 |
| 20260905191027 | 73 | 0 | 0.0 | 8.0 | 0.00 | 0.00 | 0.00 | 55 | 1011.1 |
| 20260905190530 | 73 | 0 | 0.0 | 5.0 | 0.00 | 0.00 | 0.00 | 57 | 1011.1 |
| 20260905190049 | 73 | 0 | 0.0 | 7.0 | 0.00 | 0.00 | 0.00 | 57 | 1011.1 |
| 20260905185618 | 73 | 0 | 0.0 | 9.0 | 0.00 | 0.00 | 0.00 | 59 | 1011.1 |
| 20260905185025 | 72 | 54 | 1.0 | 9.0 | 0.00 | 0.00 | 0.00 | 59 | 1011.1 |
| 20260905184549 | 72 | 0 | 0.0 | 6.0 | 0.00 | 0.00 | 0.00 | 58 | 1011.1 |
| 20260905184024 | 73 | 0 | 0.0 | 9.0 | 0.00 | 0.00 | 0.00 | 60 | 1011.2 |
| 20260905183524 | 72 | 0 | 0.0 | 9.0 | 0.00 | 0.00 | 0.00 | 62 | 1011.1 |
| 20260905183109 | 72 | 2 | 0.0 | 5.0 | 0.00 | 0.00 | 0.00 | 61 | 1011.2 |
| 20260905182525 | 72 | 0 | 0.0 | 11.0 | 0.00 | 0.00 | 0.00 | 62 | 1011.1 |
| 20260905182029 | 72 | 0 | 1.0 | 11.0 | 0.00 | 0.00 | 0.00 | 61 | 1011.0 |
| 20260905181554 | 71 | 0 | 1.0 | 8.0 | 0.00 | 0.00 | 0.00 | 63 | 1011.1 |
| 20260905181026 | 71 | 0 | 0.0 | 4.0 | 0.00 | 0.00 | 0.00 | 61 | 1011.1 |
| 20260905180527 | 72 | 0 | 0.0 | 9.0 | 0.00 | 0.00 | 0.00 | 61 | 1011.2 |
| 20260905180054 | 72 | 226 | 0.0 | 9.0 | 0.00 | 0.00 | 0.00 | 62 | 1011.2 |
| 20260905175530 | 72 | 0 | 1.0 | 7.0 | 0.00 | 0.00 | 0.00 | 60 | 1011.2 |
| 20260905175027 | 72 | 0 | 0.0 | 7.0 | 0.00 | 0.00 | 0.00 | 61 | 1011.2 |
| 20260905174543 | 72 | 0 | 0.0 | 7.0 | 0.00 | 0.00 | 0.00 | 62 | 1011.3 |
| 20260905174024 | 72 | 0 | 0.0 | 4.0 | 0.00 | 0.00 | 0.00 | 63 | 1011.3 |
| 20260905173527 | 72 | 271 | 0.0 | 4.0 | 0.00 | 0.00 | 0.00 | 64 | 1011.3 |
| 20260905173054 | 71 | 0 | 0.0 | 7.0 | 0.00 | 0.00 | 0.00 | 66 | 1011.3 |
| 20260905172524 | 70 | 0 | 0.0 | 7.0 | 0.00 | 0.00 | 0.00 | 65 | 1011.3 |
| 20260905172025 | 70 | 0 | 0.0 | 5.0 | 0.00 | 0.00 | 0.00 | 68 | 1011.4 |
| 20260905171552 | 69 | 0 | 0.0 | 2.0 | 0.00 | 0.00 | 0.00 | 71 | 1011.3 |
| 20260905171027 | 68 | 0 | 0.0 | 6.0 | 0.00 | 0.00 | 0.00 | 68 | 1011.4 |
| 20260905170527 | 68 | 0 | 0.0 | 6.0 | 0.00 | 0.00 | 0.00 | 70 | 1011.4 |
| 20260905170058 | 68 | 12 | 0.0 | 3.0 | 0.00 | 0.00 | 0.00 | 72 | 1011.5 |
| 20260905165527 | 68 | 0 | 0.0 | 4.0 | 0.00 | 0.00 | 0.00 | 71 | 1011.6 |
| 20260905165024 | 68 | 0 | 0.0 | 4.0 | 0.00 | 0.00 | 0.00 | 71 | 1011.6 |
| 20260905164544 | 68 | 0 | 0.0 | 4.0 | 0.00 | 0.00 | 0.00 | 72 | 1011.6 |
| 20260905164026 | 68 | 0 | 0.0 | 9.0 | 0.00 | 0.00 | 0.00 | 73 | 1011.6 |
| 20260905163529 | 68 | 0 | 0.0 | 9.0 | 0.00 | 0.00 | 0.00 | 72 | 1011.6 |
| 20260905163051 | 68 | 0 | 0.0 | 5.0 | 0.00 | 0.00 | 0.00 | 71 | 1011.5 |
| 20260905162526 | 68 | 0 | 0.0 | 12.0 | 0.00 | 0.00 | 0.00 | 73 | 1011.5 |
| 20260905162027 | 68 | 0 | 0.0 | 12.0 | 0.00 | 0.00 | 0.00 | 72 | 1011.5 |
| 20260905161547 | 68 | 0 | 1.0 | 12.0 | 0.00 | 0.00 | 0.00 | 71 | 1011.5 |
| 20260905161031 | 67 | 0 | 0.0 | 8.0 | 0.00 | 0.00 | 0.00 | 74 | 1011.5 |
| 20260905160531 | 67 | 0 | 0.0 | 8.0 | 0.00 | 0.00 | 0.00 | 75 | 1011.6 |
| 20260905160046 | 66 | 0 | 0.0 | 5.0 | 0.00 | 0.00 | 0.00 | 79 | 1011.5 |
| 20260905155529 | 66 | 68 | 0.0 | 4.0 | 0.00 | 0.00 | 0.00 | 80 | 1011.5 |
| 20260905155025 | 66 | 0 | 0.0 | 4.0 | 0.00 | 0.00 | 0.00 | 80 | 1011.5 |
| 20260905154551 | 66 | 0 | 0.0 | 4.0 | 0.00 | 0.00 | 0.00 | 80 | 1011.5 |
| 20260905154027 | 66 | 0 | 0.0 | 4.0 | 0.00 | 0.00 | 0.00 | 81 | 1011.5 |
| 20260905153528 | 65 | 0 | 0.0 | 7.0 | 0.00 | 0.00 | 0.00 | 82 | 1011.4 |
| 20260905153048 | 65 | 0 | 0.0 | 7.0 | 0.00 | 0.00 | 0.00 | 81 | 1011.5 |
| 20260905152525 | 65 | 0 | 0.0 | 5.0 | 0.00 | 0.00 | 0.00 | 85 | 1011.5 |
| 20260905152027 | 64 | 0 | 0.0 | 8.0 | 0.00 | 0.00 | 0.00 | 87 | 1011.4 |
| 20260905151550 | 64 | 0 | 0.0 | 8.0 | 0.00 | 0.00 | 0.00 | 88 | 1011.4 |
| 20260905151025 | 64 | 0 | 0.0 | 8.0 | 0.00 | 0.00 | 0.00 | 89 | 1011.5 |
| 20260905150524 | 64 | 0 | 0.0 | 3.0 | 0.00 | 0.00 | 0.00 | 89 | 1011.4 |
| 20260905150051 | 64 | 0 | 0.0 | 3.0 | 0.00 | 0.00 | 0.00 | 88 | 1011.4 |
| 20260905145526 | 64 | 0 | 0.0 | 3.0 | 0.00 | 0.00 | 0.00 | 88 | 1011.4 |
| 20260905145024 | 65 | 268 | 0.0 | 2.0 | 0.00 | 0.00 | 0.00 | 87 | 1011.4 |
| 20260905144543 | 65 | 0 | 0.0 | 5.0 | 0.00 | 0.00 | 0.00 | 85 | 1011.3 |
| 20260905144027 | 66 | 0 | 0.0 | 5.0 | 0.00 | 0.00 | 0.00 | 84 | 1011.3 |
| 20260905143527 | 66 | 0 | 0.0 | 3.0 | 0.00 | 0.00 | 0.00 | 82 | 1011.2 |
| 20260905143049 | 66 | 359 | 0.0 | 3.0 | 0.00 | 0.00 | 0.00 | 82 | 1011.1 |
| 20260905142524 | 66 | 0 | 0.0 | 4.0 | 0.00 | 0.00 | 0.00 | 81 | 1011.0 |
| 20260905142025 | 66 | 0 | 0.0 | 4.0 | 0.00 | 0.00 | 0.00 | 82 | 1010.8 |
| 20260905141546 | 66 | 0 | 0.0 | 1.0 | 0.00 | 0.00 | 0.00 | 83 | 1010.9 |
| 20260905141027 | 65 | 0 | 0.0 | 3.0 | 0.00 | 0.00 | 0.00 | 83 | 1010.8 |
| 20260905140525 | 65 | 0 | 0.0 | 3.0 | 0.00 | 0.00 | 0.00 | 83 | 1010.9 |
| 20260905140049 | 65 | 0 | 0.0 | 1.0 | 0.00 | 0.00 | 0.00 | 85 | 1010.8 |
| 20260905135526 | 65 | 0 | 0.0 | 6.0 | 0.00 | 0.00 | 0.00 | 85 | 1010.8 |
| 20260905135025 | 65 | 0 | 0.0 | 6.0 | 0.00 | 0.00 | 0.00 | 85 | 1010.8 |
| 20260905134553 | 64 | 0 | 0.0 | 4.0 | 0.00 | 0.00 | 0.00 | 87 | 1010.7 |
| 20260905134024 | 64 | 0 | 0.0 | 4.0 | 0.00 | 0.00 | 0.00 | 87 | 1010.7 |
| 20260905133525 | 64 | 0 | 0.0 | 2.0 | 0.00 | 0.00 | 0.00 | 88 | 1010.6 |
| 20260905133047 | 64 | 0 | 0.0 | 1.0 | 0.00 | 0.00 | 0.00 | 89 | 1010.7 |
| 20260905132525 | 63 | 0 | 0.0 | 0.0 | 0.00 | 0.00 | 0.00 | 89 | 1010.5 |
| 20260905132027 | 63 | 0 | 0.0 | 1.0 | 0.00 | 0.00 | 0.00 | 90 | 1010.5 |
| 20260905131545 | 63 | 0 | 0.0 | 1.0 | 0.00 | 0.00 | 0.00 | 91 | 1010.5 |
| 20260905131026 | 63 | 0 | 0.0 | 0.0 | 0.00 | 0.00 | 0.00 | 90 | 1010.4 |
| 20260905130524 | 63 | 0 | 0.0 | 0.0 | 0.00 | 0.00 | 0.00 | 90 | 1010.5 |
| 20260905130044 | 62 | 0 | 0.0 | 0.0 | 0.00 | 0.00 | 0.00 | 90 | 1010.5 |
| 20260905125526 | 63 | 0 | 0.0 | 0.0 | 0.00 | 0.00 | 0.00 | 89 | 1010.5 |
| 20260905125025 | 63 | 0 | 0.0 | 7.0 | 0.00 | 0.00 | 0.00 | 89 | 1010.6 |
| 20260905124549 | 63 | 0 | 0.0 | 7.0 | 0.00 | 0.00 | 0.00 | 88 | 1010.6 |
| 20260905124024 | 63 | 0 | 0.0 | 1.0 | 0.00 | 0.00 | 0.00 | 87 | 1010.6 |
| 20260905123527 | 63 | 0 | 0.0 | 0.0 | 0.00 | 0.00 | 0.00 | 85 | 1010.4 |
| 20260905123049 | 63 | 0 | 0.0 | 4.0 | 0.00 | 0.00 | 0.00 | 86 | 1010.3 |
| 20260905122529 | 63 | 0 | 0.0 | 4.0 | 0.00 | 0.00 | 0.00 | 87 | 1010.3 |
| 20260905122028 | 63 | 0 | 0.0 | 2.0 | 0.00 | 0.00 | 0.00 | 86 | 1010.2 |
| 20260905121545 | 63 | 0 | 0.0 | 2.0 | 0.00 | 0.00 | 0.00 | 86 | 1010.1 |
| 20260905121030 | 63 | 0 | 0.0 | 2.0 | 0.00 | 0.00 | 0.00 | 87 | 1010.0 |
| 20260905120526 | 63 | 0 | 0.0 | 0.0 | 0.00 | 0.00 | 0.00 | 87 | 1010.0 |
| 20260905120049 | 62 | 0 | 0.0 | 1.0 | 0.00 | 0.00 | 0.00 | 88 | 1010.0 |
| 20260905115528 | 62 | 0 | 0.0 | 6.0 | 0.00 | 0.00 | 0.00 | 87 | 1010.0 |
| 20260905115025 | 62 | 0 | 0.0 | 6.0 | 0.00 | 0.00 | 0.00 | 87 | 1009.9 |
| 20260905114547 | 62 | 0 | 0.0 | 1.0 | 0.00 | 0.00 | 0.00 | 87 | 1010.0 |
| 20260905114025 | 62 | 0 | 0.0 | 0.0 | 0.00 | 0.00 | 0.00 | 88 | 1009.9 |
| 20260905113525 | 62 | 0 | 0.0 | 0.0 | 0.00 | 0.00 | 0.00 | 87 | 1009.9 |
| 20260905113043 | 62 | 0 | 0.0 | 4.0 | 0.00 | 0.00 | 0.00 | 88 | 1009.9 |
| 20260905112525 | 62 | 0 | 0.0 | 4.0 | 0.00 | 0.00 | 0.00 | 88 | 1009.9 |
| 20260905112027 | 61 | 0 | 0.0 | 0.0 | 0.00 | 0.00 | 0.00 | 89 | 1009.7 |
| 20260905111553 | 61 | 0 | 0.0 | 1.0 | 0.00 | 0.00 | 0.00 | 89 | 1009.6 |
| 20260905111028 | 61 | 0 | 0.0 | 1.0 | 0.00 | 0.00 | 0.00 | 89 | 1009.5 |
| 20260905110527 | 61 | 0 | 0.0 | 0.0 | 0.00 | 0.00 | 0.00 | 89 | 1009.5 |
| 20260905110048 | 61 | 0 | 0.0 | 0.0 | 0.00 | 0.00 | 0.00 | 89 | 1009.5 |
| 20260905105525 | 61 | 0 | 0.0 | 1.0 | 0.00 | 0.00 | 0.00 | 89 | 1009.3 |
| 20260905105025 | 61 | 0 | 0.0 | 1.0 | 0.00 | 0.00 | 0.00 | 90 | 1009.3 |
| 20260905104601 | 61 | 0 | 0.0 | 1.0 | 0.00 | 0.00 | 0.00 | 90 | 1009.3 |
| 20260905104026 | 60 | 0 | 0.0 | 0.0 | 0.00 | 0.00 | 0.00 | 90 | 1009.3 |
| 20260905103525 | 60 | 0 | 0.0 | 0.0 | 0.00 | 0.00 | 0.00 | 91 | 1009.2 |
| 20260905103042 | 60 | 0 | 0.0 | 0.0 | 0.00 | 0.00 | 0.00 | 92 | 1009.1 |
| 20260905102525 | 60 | 0 | 0.0 | 0.0 | 0.00 | 0.00 | 0.00 | 92 | 1009.2 |
| 20260905102027 | 59 | 0 | 0.0 | 0.0 | 0.00 | 0.00 | 0.00 | 93 | 1009.1 |
| 20260905101550 | 59 | 0 | 0.0 | 0.0 | 0.00 | 0.00 | 0.00 | 93 | 1009.2 |
| 20260905101027 | 59 | 0 | 0.0 | 0.0 | 0.00 | 0.00 | 0.00 | 94 | 1009.2 |
| 20260905100526 | 59 | 0 | 0.0 | 0.0 | 0.00 | 0.00 | 0.00 | 94 | 1009.2 |
| 20260905100046 | 59 | 0 | 0.0 | 0.0 | 0.00 | 0.00 | 0.00 | 94 | 1009.2 |
| 20260905095527 | 59 | 0 | 0.0 | 0.0 | 0.00 | 0.01 | 0.00 | 94 | 1009.1 |
| 20260905095028 | 59 | 0 | 0.0 | 0.0 | 0.00 | 0.01 | 0.00 | 94 | 1009.1 |
| 20260905094543 | 58 | 0 | 0.0 | 0.0 | 0.00 | 0.01 | 0.00 | 94 | 1009.0 |
| 20260905094029 | 58 | 0 | 0.0 | 0.0 | 0.00 | 0.01 | 0.00 | 94 | 1008.9 |
| 20260905093525 | 58 | 0 | 0.0 | 0.0 | 0.00 | 0.01 | 0.00 | 95 | 1008.9 |
| 20260905093042 | 58 | 0 | 0.0 | 0.0 | 0.00 | 0.01 | 0.00 | 95 | 1008.9 |
| 20260905092524 | 58 | 0 | 0.0 | 0.0 | 0.00 | 0.01 | 0.00 | 95 | 1008.9 |
| 20260905092031 | 58 | 0 | 0.0 | 0.0 | 0.00 | 0.01 | 0.00 | 95 | 1008.9 |
| 20260905091550 | 58 | 0 | 0.0 | 0.0 | 0.00 | 0.01 | 0.00 | 95 | 1008.9 |
| 20260905091025 | 58 | 0 | 0.0 | 0.0 | 0.00 | 0.01 | 0.00 | 94 | 1008.9 |
| 20260905090527 | 58 | 0 | 0.0 | 0.0 | 0.00 | 0.01 | 0.00 | 94 | 1008.9 |
| 20260905090111 | 58 | 0 | 0.0 | 0.0 | 0.00 | 0.01 | 0.00 | 94 | 1008.9 |
| 20260905085524 | 58 | 0 | 0.0 | 0.0 | 0.00 | 0.01 | 0.00 | 94 | 1008.8 |
| 20260905085024 | 58 | 0 | 0.0 | 0.0 | 0.00 | 0.01 | 0.00 | 94 | 1008.8 |
| 20260905084543 | 57 | 0 | 0.0 | 0.0 | 0.00 | 0.01 | 0.00 | 94 | 1008.8 |
| 20260905084025 | 57 | 0 | 0.0 | 0.0 | 0.00 | 0.01 | 0.00 | 94 | 1008.7 |
| 20260905083525 | 57 | 0 | 0.0 | 0.0 | 0.00 | 0.01 | 0.00 | 94 | 1008.7 |
| 20260905083050 | 57 | 0 | 0.0 | 0.0 | 0.00 | 0.01 | 0.00 | 94 | 1008.7 |
| 20260905082533 | 57 | 0 | 0.0 | 0.0 | 0.00 | 0.01 | 0.00 | 94 | 1008.7 |
| 20260905082025 | 57 | 0 | 0.0 | 0.0 | 0.00 | 0.01 | 0.00 | 94 | 1008.7 |
| 20260905081547 | 57 | 0 | 0.0 | 0.0 | 0.00 | 0.01 | 0.00 | 94 | 1008.8 |
| 20260905081027 | 58 | 0 | 0.0 | 0.0 | 0.00 | 0.01 | 0.00 | 94 | 1008.7 |
| 20260905080524 | 58 | 0 | 0.0 | 0.0 | 0.00 | 0.01 | 0.00 | 93 | 1008.6 |
| 20260905080050 | 58 | 0 | 0.0 | 0.0 | 0.00 | 0.01 | 0.00 | 93 | 1008.6 |
| 20260905075525 | 58 | 0 | 0.0 | 0.0 | 0.00 | 0.01 | 0.00 | 93 | 1008.5 |
| 20260905075026 | 58 | 0 | 0.0 | 0.0 | 0.00 | 0.01 | 0.00 | 93 | 1008.5 |
| 20260905074549 | 58 | 0 | 0.0 | 0.0 | 0.00 | 0.01 | 0.00 | 93 | 1008.6 |
| 20260905074025 | 58 | 0 | 0.0 | 0.0 | 0.00 | 0.01 | 0.00 | 93 | 1008.6 |
| 20260905073528 | 58 | 0 | 0.0 | 0.0 | 0.00 | 0.01 | 0.00 | 93 | 1008.7 |
| 20260905073047 | 58 | 0 | 0.0 | 0.0 | 0.00 | 0.01 | 0.00 | 93 | 1008.6 |
| 20260905072524 | 59 | 0 | 0.0 | 0.0 | 0.00 | 0.01 | 0.00 | 93 | 1008.6 |
| 20260905072026 | 59 | 0 | 0.0 | 0.0 | 0.00 | 0.01 | 0.00 | 93 | 1008.6 |
| 20260905071552 | 59 | 0 | 0.0 | 0.0 | 0.00 | 0.01 | 0.00 | 93 | 1008.6 |
| 20260905071024 | 59 | 0 | 0.0 | 0.0 | 0.00 | 0.01 | 0.00 | 93 | 1008.5 |
| 20260905070523 | 59 | 0 | 0.0 | 0.0 | 0.00 | 0.01 | 0.00 | 93 | 1008.5 |
| 20260905070047 | 59 | 0 | 0.0 | 0.0 | 0.00 | 0.01 | 0.00 | 93 | 1008.5 |
| 20260905065527 | 59 | 0 | 0.0 | 0.0 | 0.00 | 0.01 | 0.00 | 93 | 1008.5 |
| 20260905065027 | 59 | 0 | 0.0 | 0.0 | 0.00 | 0.01 | 0.00 | 93 | 1008.4 |
| 20260905064550 | 59 | 0 | 0.0 | 0.0 | 0.00 | 0.01 | 0.00 | 93 | 1008.4 |
| 20260905064027 | 59 | 0 | 0.0 | 0.0 | 0.00 | 0.01 | 0.00 | 92 | 1008.3 |
| 20260905063524 | 59 | 0 | 0.0 | 0.0 | 0.00 | 0.01 | 0.00 | 92 | 1008.3 |
| 20260905063045 | 59 | 0 | 0.0 | 0.0 | 0.00 | 0.01 | 0.00 | 92 | 1008.3 |
| 20260905062525 | 60 | 0 | 0.0 | 0.0 | 0.00 | 0.01 | 0.00 | 92 | 1008.2 |
| 20260905062024 | 60 | 0 | 0.0 | 0.0 | 0.00 | 0.01 | 0.00 | 92 | 1008.1 |
| 20260905061545 | 60 | 0 | 0.0 | 0.0 | 0.00 | 0.01 | 0.00 | 92 | 1008.2 |
| 20260905061023 | 60 | 0 | 0.0 | 0.0 | 0.00 | 0.01 | 0.00 | 92 | 1008.3 |
| 20260905060524 | 60 | 0 | 0.0 | 0.0 | 0.00 | 0.01 | 0.00 | 92 | 1008.4 |
| 20260905060050 | 60 | 0 | 0.0 | 0.0 | 0.00 | 0.01 | 0.00 | 91 | 1008.4 |
| 20260905055527 | 60 | 0 | 0.0 | 0.0 | 0.00 | 0.01 | 0.00 | 91 | 1008.5 |
| 20260905055029 | 61 | 0 | 0.0 | 0.0 | 0.00 | 0.01 | 0.00 | 91 | 1008.5 |
| 20260905054548 | 61 | 0 | 0.0 | 0.0 | 0.00 | 0.01 | 0.00 | 91 | 1008.6 |
| 20260905054027 | 61 | 0 | 0.0 | 0.0 | 0.00 | 0.01 | 0.00 | 91 | 1008.6 |
| 20260905053527 | 61 | 0 | 0.0 | 0.0 | 0.00 | 0.01 | 0.00 | 91 | 1008.6 |
| 20260905053044 | 61 | 0 | 0.0 | 0.0 | 0.00 | 0.01 | 0.00 | 90 | 1008.5 |
| 20260905052526 | 61 | 0 | 0.0 | 0.0 | 0.00 | 0.01 | 0.00 | 90 | 1008.5 |
| 20260905052027 | 61 | 0 | 0.0 | 0.0 | 0.00 | 0.01 | 0.00 | 90 | 1008.5 |
| 20260905051544 | 61 | 0 | 0.0 | 0.0 | 0.00 | 0.01 | 0.00 | 90 | 1008.6 |
| 20260905051024 | 62 | 0 | 0.0 | 0.0 | 0.00 | 0.01 | 0.00 | 90 | 1008.6 |
| 20260905050524 | 62 | 0 | 0.0 | 0.0 | 0.00 | 0.01 | 0.00 | 89 | 1008.5 |
| 20260905050050 | 62 | 0 | 0.0 | 0.0 | 0.00 | 0.01 | 0.00 | 89 | 1008.5 |
| 20260905045532 | 62 | 0 | 0.0 | 0.0 | 0.00 | 0.01 | 0.00 | 89 | 1008.6 |
| 20260905045024 | 62 | 0 | 0.0 | 0.0 | 0.00 | 0.01 | 0.00 | 88 | 1008.5 |
| 20260905044550 | 63 | 0 | 0.0 | 0.0 | 0.00 | 0.01 | 0.00 | 88 | 1008.4 |
| 20260905044026 | 63 | 0 | 0.0 | 0.0 | 0.00 | 0.01 | 0.00 | 88 | 1008.5 |
| 20260905043528 | 63 | 0 | 0.0 | 0.0 | 0.00 | 0.01 | 0.00 | 88 | 1008.6 |
| 20260905043044 | 63 | 0 | 0.0 | 0.0 | 0.00 | 0.01 | 0.00 | 87 | 1008.6 |
| 20260905042529 | 63 | 0 | 0.0 | 0.0 | 0.00 | 0.01 | 0.00 | 87 | 1008.6 |
| 20260905042025 | 63 | 0 | 0.0 | 0.0 | 0.00 | 0.01 | 0.00 | 87 | 1008.6 |
| 20260905041550 | 63 | 0 | 0.0 | 0.0 | 0.00 | 0.01 | 0.00 | 87 | 1008.6 |
| 20260905041023 | 64 | 0 | 0.0 | 0.0 | 0.00 | 0.01 | 0.00 | 86 | 1008.6 |
| 20260905040524 | 64 | 0 | 0.0 | 0.0 | 0.00 | 0.01 | 0.00 | 87 | 1008.5 |
| 20260905040050 | 64 | 0 | 0.0 | 0.0 | 0.00 | 0.01 | 0.00 | 86 | 1008.5 |
| 20260905035526 | 64 | 0 | 0.0 | 0.0 | 0.00 | 0.01 | 0.01 | 87 | 1008.4 |
| 20260905035027 | 64 | 0 | 0.0 | 0.0 | 0.00 | 0.01 | 0.01 | 87 | 1008.5 |
| 20260905034550 | 64 | 0 | 0.0 | 0.0 | 0.00 | 0.01 | 0.01 | 86 | 1008.5 |
| 20260905034028 | 64 | 0 | 0.0 | 0.0 | 0.00 | 0.01 | 0.01 | 87 | 1008.6 |
| 20260905033530 | 64 | 0 | 0.0 | 0.0 | 0.00 | 0.01 | 0.01 | 86 | 1008.6 |
| 20260905033047 | 64 | 0 | 0.0 | 0.0 | 0.00 | 0.01 | 0.01 | 87 | 1008.6 |
| 20260905032532 | 64 | 0 | 0.0 | 0.0 | 0.00 | 0.01 | 0.01 | 87 | 1008.6 |
| 20260905032031 | 64 | 0 | 0.0 | 0.0 | 0.00 | 0.01 | 0.01 | 87 | 1008.5 |
| 20260905031548 | 64 | 0 | 0.0 | 0.0 | 0.00 | 0.01 | 0.01 | 87 | 1008.5 |
| 20260905031033 | 64 | 0 | 0.0 | 0.0 | 0.00 | 0.01 | 0.01 | 87 | 1008.6 |
| 20260905030527 | 64 | 0 | 0.0 | 0.0 | 0.00 | 0.01 | 0.01 | 87 | 1008.5 |
| 20260905030046 | 64 | 0 | 0.0 | 0.0 | 0.00 | 0.01 | 0.01 | 87 | 1008.5 |
| 20260905025524 | 64 | 0 | 0.0 | 0.0 | 0.00 | 0.01 | 0.01 | 85 | 1008.6 |
| 20260905025030 | 64 | 0 | 0.0 | 0.0 | 0.00 | 0.01 | 0.01 | 85 | 1008.6 |
| 20260905024542 | 64 | 0 | 0.0 | 0.0 | 0.00 | 0.01 | 0.01 | 85 | 1008.5 |
| 20260905024025 | 64 | 0 | 0.0 | 0.0 | 0.00 | 0.01 | 0.01 | 85 | 1008.6 |
| 20260905023524 | 64 | 0 | 0.0 | 0.0 | 0.00 | 0.01 | 0.01 | 84 | 1008.6 |
| 20260905023045 | 64 | 0 | 0.0 | 0.0 | 0.00 | 0.01 | 0.01 | 84 | 1008.6 |
| 20260905022526 | 64 | 0 | 0.0 | 0.0 | 0.00 | 0.01 | 0.01 | 84 | 1008.8 |
| 20260905022028 | 65 | 0 | 0.0 | 0.0 | 0.00 | 0.01 | 0.01 | 83 | 1008.7 |
| 20260905021549 | 65 | 0 | 0.0 | 0.0 | 0.00 | 0.01 | 0.01 | 83 | 1008.7 |
| 20260905021025 | 65 | 0 | 0.0 | 0.0 | 0.00 | 0.01 | 0.01 | 83 | 1008.8 |
| 20260905020526 | 65 | 0 | 0.0 | 0.0 | 0.00 | 0.01 | 0.01 | 82 | 1008.7 |
| 20260905020043 | 66 | 0 | 0.0 | 0.0 | 0.00 | 0.01 | 0.01 | 82 | 1008.7 |
| 20260905015528 | 66 | 0 | 0.0 | 0.0 | 0.00 | 0.02 | 0.01 | 82 | 1008.7 |
| 20260905015024 | 66 | 0 | 0.0 | 0.0 | 0.00 | 0.02 | 0.01 | 81 | 1008.7 |
| 20260905014552 | 66 | 0 | 0.0 | 0.0 | 0.00 | 0.02 | 0.01 | 81 | 1008.6 |
| 20260905014024 | 67 | 0 | 0.0 | 0.0 | 0.00 | 0.02 | 0.01 | 81 | 1008.6 |
| 20260905013526 | 67 | 0 | 0.0 | 0.0 | 0.00 | 0.02 | 0.01 | 80 | 1008.8 |
| 20260905013107 | 67 | 0 | 0.0 | 0.0 | 0.00 | 0.02 | 0.01 | 80 | 1008.8 |
| 20260905012525 | 67 | 0 | 0.0 | 0.0 | 0.00 | 0.02 | 0.01 | 80 | 1008.8 |
| 20260905012024 | 67 | 0 | 0.0 | 0.0 | 0.00 | 0.02 | 0.01 | 79 | 1008.8 |
| 20260905011543 | 67 | 0 | 0.0 | 0.0 | 0.00 | 0.02 | 0.01 | 79 | 1008.9 |
| 20260905011029 | 68 | 0 | 0.0 | 0.0 | 0.00 | 0.02 | 0.01 | 80 | 1008.9 |
| 20260905010524 | 68 | 0 | 0.0 | 0.0 | 0.00 | 0.02 | 0.01 | 82 | 1008.9 |
| 20260905010043 | 68 | 0 | 0.0 | 0.0 | 0.00 | 0.02 | 0.01 | 82 | 1008.8 |
| 20260905005525 | 68 | 0 | 0.0 | 0.0 | 0.00 | 0.02 | 0.01 | 79 | 1008.9 |
| 20260905005024 | 68 | 0 | 0.0 | 0.0 | 0.00 | 0.02 | 0.01 | 78 | 1008.8 |
| 20260905004627 | 68 | 0 | 0.0 | 0.0 | 0.00 | 0.02 | 0.01 | 78 | 1008.8 |
| 20260905004027 | 68 | 0 | 0.0 | 0.0 | 0.00 | 0.02 | 0.01 | 79 | 1008.8 |
| 20260905003530 | 68 | 0 | 0.0 | 0.0 | 0.00 | 0.02 | 0.01 | 82 | 1008.8 |
| 20260905003047 | 68 | 0 | 0.0 | 0.0 | 0.00 | 0.02 | 0.01 | 82 | 1008.8 |
| 20260905002524 | 69 | 0 | 0.0 | 0.0 | 0.00 | 0.02 | 0.01 | 81 | 1008.8 |
| 20260905002031 | 69 | 0 | 0.0 | 0.0 | 0.00 | 0.02 | 0.01 | 79 | 1008.7 |
| 20260905001554 | 69 | 0 | 0.0 | 0.0 | 0.00 | 0.02 | 0.01 | 79 | 1008.7 |
| 20260905001026 | 69 | 0 | 0.0 | 0.0 | 0.00 | 0.02 | 0.01 | 79 | 1008.7 |